VOZ846 YPAD-YSSY

Flight info

Callsign VOZ846
Flight time 1h 32m
Altitude 39000
Route AVDEN H247 CULIN Y59 RIVET
Aircraft B737/M-SDE2E3FGHIRWXY/LB1

Departure

Time 2026-05-06 04:28
Airport Adelaide International Airport (YPAD)

Arrival

Time 2026-05-06 06:00
Airport Sydney Kingsford Smith International Airport (YSSY)
Time Latitude Longitude Altitude Speed Heading
2026-05-06 04:14 -34.94033 138.53700 25 ft 0 kts 320°
2026-05-06 04:21 -34.94030 138.53696 29 ft 4 kts 141°
2026-05-06 04:21 -34.94040 138.53706 25 ft 1 kts 140°
2026-05-06 04:21 -34.94037 138.53702 25 ft 1 kts 140°
2026-05-06 04:25 -34.94049 138.53715 28 ft 6 kts 140°
2026-05-06 04:26 -34.94085 138.53771 27 ft 10 kts 94°
2026-05-06 04:26 -34.94056 138.53830 27 ft 4 kts 50°
2026-05-06 04:26 -34.93996 138.53913 26 ft 25 kts 50°
2026-05-06 04:26 -34.93893 138.54066 26 ft 13 kts 59°
2026-05-06 04:27 -34.93920 138.54165 26 ft 13 kts 136°
2026-05-06 04:27 -34.93988 138.54234 25 ft 13 kts 140°
2026-05-06 04:27 -34.94054 138.54295 26 ft 8 kts 165°
2026-05-06 04:27 -34.94111 138.54260 27 ft 7 kts 233°
2026-05-06 04:28 -34.94155 138.54190 25 ft 11 kts 230°
2026-05-06 04:28 -34.94345 138.53917 25 ft 91 kts 230°
2026-05-06 04:28 -34.94946 138.53050 179 ft 165 kts 229°
2026-05-06 04:28 -34.95727 138.51920 1171 ft 184 kts 233°
2026-05-06 04:29 -34.96521 138.50760 2582 ft 179 kts 232°
2026-05-06 04:29 -34.97324 138.49586 3464 ft 187 kts 232°
2026-05-06 04:29 -34.98149 138.48300 4185 ft 191 kts 232°
2026-05-06 04:29 -34.99013 138.47057 4779 ft 200 kts 231°
2026-05-06 04:30 -34.99969 138.45685 5165 ft 220 kts 232°
2026-05-06 04:30 -35.00972 138.44237 5840 ft 227 kts 232°
2026-05-06 04:30 -35.02058 138.42807 6554 ft 235 kts 219°
2026-05-06 04:30 -35.03626 138.41975 7040 ft 262 kts 192°
2026-05-06 04:31 -35.05477 138.42234 7879 ft 279 kts 160°
2026-05-06 04:31 -35.07139 138.43534 8898 ft 286 kts 147°
2026-05-06 04:31 -35.08727 138.45053 9626 ft 293 kts 146°
2026-05-06 04:31 -35.10114 138.46913 9972 ft 305 kts 122°
2026-05-06 04:32 -35.10703 138.49434 9994 ft 315 kts 93°
2026-05-06 04:32 -35.10591 138.52104 10010 ft 315 kts 86°
2026-05-06 04:32 -35.10464 138.53873 10008 ft 317 kts 86°
2026-05-06 04:32 -35.10254 138.56625 10161 ft 339 kts 86°
2026-05-06 04:33 -35.10043 138.59623 10379 ft 367 kts 86°
2026-05-06 04:33 -35.09763 138.63876 10991 ft 388 kts 86°
2026-05-06 04:33 -35.09552 138.67191 11761 ft 393 kts 86°
2026-05-06 04:33 -35.09409 138.69437 12335 ft 395 kts 86°
2026-05-06 04:34 -35.09194 138.72801 13117 ft 400 kts 86°
2026-05-06 04:34 -35.08976 138.76209 13837 ft 406 kts 86°
2026-05-06 04:34 -35.08681 138.80790 14747 ft 411 kts 86°
2026-05-06 04:34 -35.08529 138.83147 15232 ft 412 kts 86°
2026-05-06 04:35 -35.08305 138.86596 15985 ft 413 kts 86°
2026-05-06 04:35 -35.08076 138.90110 16612 ft 419 kts 86°
2026-05-06 04:35 -35.07842 138.93676 17206 ft 424 kts 86°
2026-05-06 04:35 -35.07604 138.97282 17842 ft 427 kts 86°
2026-05-06 04:36 -35.07362 139.00914 18455 ft 431 kts 86°
2026-05-06 04:36 -35.07118 139.04584 18996 ft 435 kts 86°
2026-05-06 04:36 -35.06870 139.08287 19522 ft 439 kts 86°
2026-05-06 04:36 -35.06620 139.12014 20012 ft 444 kts 86°
2026-05-06 04:37 -35.06366 139.15794 20500 ft 448 kts 86°
2026-05-06 04:37 -35.06109 139.19589 21030 ft 451 kts 86°
2026-05-06 04:37 -35.05847 139.23421 21545 ft 454 kts 86°
2026-05-06 04:37 -35.05582 139.27278 22029 ft 457 kts 86°
2026-05-06 04:38 -35.05314 139.31162 22503 ft 461 kts 86°
2026-05-06 04:38 -35.05043 139.35073 22973 ft 464 kts 86°
2026-05-06 04:38 -35.04769 139.39005 23427 ft 467 kts 86°
2026-05-06 04:38 -35.04492 139.42967 23852 ft 470 kts 86°
2026-05-06 04:39 -35.04212 139.46955 24218 ft 473 kts 86°
2026-05-06 04:39 -35.03929 139.50965 24609 ft 475 kts 86°
2026-05-06 04:39 -35.03644 139.54984 24993 ft 477 kts 86°
2026-05-06 04:39 -35.03359 139.58982 25337 ft 479 kts 86°
2026-05-06 04:40 -35.03068 139.63043 25680 ft 481 kts 85°
2026-05-06 04:40 -35.02775 139.67116 26041 ft 482 kts 85°
2026-05-06 04:40 -35.02479 139.71212 26405 ft 484 kts 85°
2026-05-06 04:40 -35.02181 139.75321 26735 ft 486 kts 85°
2026-05-06 04:41 -35.01880 139.79445 27000 ft 490 kts 85°
2026-05-06 04:41 -35.01576 139.83591 27292 ft 492 kts 85°
2026-05-06 04:41 -35.01270 139.87756 27606 ft 493 kts 85°
2026-05-06 04:41 -35.00960 139.91943 27914 ft 495 kts 85°
2026-05-06 04:42 -35.00648 139.96136 28202 ft 497 kts 84°
2026-05-06 04:42 -35.00334 140.00340 28474 ft 499 kts 84°
2026-05-06 04:42 -35.00022 140.04505 28712 ft 502 kts 84°
2026-05-06 04:42 -34.99701 140.08759 28951 ft 504 kts 84°
2026-05-06 04:43 -34.99378 140.13030 29198 ft 506 kts 84°
2026-05-06 04:43 -34.99053 140.17305 29460 ft 507 kts 84°
2026-05-06 04:43 -34.98726 140.21587 29791 ft 507 kts 84°
2026-05-06 04:43 -34.98397 140.25882 30152 ft 506 kts 84°
2026-05-06 04:44 -34.98068 140.30151 30493 ft 505 kts 83°
2026-05-06 04:44 -34.97743 140.34362 30807 ft 505 kts 84°
2026-05-06 04:44 -34.97541 140.38631 31083 ft 506 kts 88°
2026-05-06 04:44 -34.97536 140.42931 31366 ft 506 kts 90°
2026-05-06 04:45 -34.97622 140.47225 31633 ft 507 kts 91°
2026-05-06 04:45 -34.97728 140.51525 31898 ft 507 kts 91°
2026-05-06 04:45 -34.97822 140.55825 32185 ft 507 kts 90°
2026-05-06 04:45 -34.97891 140.60116 32493 ft 507 kts 90°
2026-05-06 04:46 -34.97939 140.64418 32820 ft 506 kts 89°
2026-05-06 04:46 -34.97971 140.68708 33129 ft 506 kts 89°
2026-05-06 04:46 -34.97996 140.73000 33405 ft 507 kts 89°
2026-05-06 04:46 -34.98016 140.77298 33725 ft 506 kts 89°
2026-05-06 04:47 -34.98035 140.81585 34076 ft 505 kts 89°
2026-05-06 04:47 -34.98055 140.85874 34380 ft 505 kts 88°
2026-05-06 04:47 -34.98074 140.90099 34631 ft 505 kts 88°
2026-05-06 04:47 -34.98092 140.94389 34875 ft 505 kts 88°
2026-05-06 04:48 -34.98109 140.98679 35145 ft 505 kts 88°
2026-05-06 04:48 -34.98125 141.02967 35412 ft 505 kts 88°
2026-05-06 04:48 -34.98139 141.07247 35674 ft 504 kts 88°
2026-05-06 04:48 -34.98152 141.11530 35941 ft 504 kts 88°
2026-05-06 04:49 -34.98164 141.15819 36210 ft 504 kts 88°
2026-05-06 04:49 -34.98173 141.20095 36475 ft 504 kts 88°
2026-05-06 04:49 -34.98181 141.24360 36743 ft 504 kts 88°
2026-05-06 04:49 -34.98188 141.28579 37006 ft 503 kts 88°
2026-05-06 04:50 -34.98193 141.32847 37269 ft 503 kts 88°
2026-05-06 04:50 -34.98197 141.37116 37476 ft 505 kts 88°
2026-05-06 04:50 -34.98199 141.41414 37578 ft 508 kts 88°
2026-05-06 04:50 -34.98200 141.45719 37801 ft 508 kts 88°
2026-05-06 04:51 -34.98200 141.50028 38086 ft 507 kts 88°
2026-05-06 04:51 -34.98197 141.54323 38374 ft 506 kts 88°
2026-05-06 04:51 -34.98193 141.58611 38656 ft 504 kts 88°
2026-05-06 04:51 -34.98187 141.62886 38930 ft 503 kts 88°
2026-05-06 04:52 -34.98180 141.67151 39095 ft 503 kts 88°
2026-05-06 04:52 -34.98171 141.71424 39200 ft 505 kts 88°
2026-05-06 04:52 -34.98160 141.75714 39211 ft 507 kts 88°
2026-05-06 04:53 -34.98136 141.84302 39214 ft 505 kts 87°
2026-05-06 04:53 -34.98107 141.92774 39209 ft 502 kts 87°
2026-05-06 04:54 -34.98071 142.01274 39212 ft 500 kts 87°
2026-05-06 04:54 -34.97727 142.09697 39202 ft 498 kts 87°
2026-05-06 04:55 -34.97814 142.18147 39214 ft 498 kts 89°
2026-05-06 04:55 -34.97902 142.26600 39216 ft 499 kts 88°
2026-05-06 04:56 -34.97883 142.35079 39219 ft 500 kts 87°
2026-05-06 04:56 -34.97812 142.43567 39216 ft 501 kts 87°
2026-05-06 04:57 -34.97732 142.52072 39217 ft 503 kts 87°
2026-05-06 04:57 -34.97652 142.60550 39215 ft 504 kts 86°
2026-05-06 04:58 -34.97569 142.69101 39201 ft 504 kts 87°
2026-05-06 04:58 -34.97480 142.77653 39208 ft 504 kts 86°
2026-05-06 04:59 -34.97384 142.86202 39210 ft 504 kts 86°
2026-05-06 04:59 -34.97283 142.94749 39207 ft 503 kts 86°
2026-05-06 05:00 -34.97175 143.03285 39211 ft 503 kts 86°
2026-05-06 05:00 -34.97062 143.11753 39211 ft 502 kts 86°
2026-05-06 05:01 -34.96945 143.20257 39210 ft 501 kts 86°
2026-05-06 05:01 -34.96828 143.28771 39203 ft 500 kts 86°
2026-05-06 05:02 -34.96727 143.37211 39205 ft 500 kts 86°
2026-05-06 05:02 -34.96622 143.45687 39200 ft 500 kts 86°
2026-05-06 05:03 -34.96509 143.54161 39205 ft 499 kts 86°
2026-05-06 05:03 -34.96388 143.62633 39206 ft 499 kts 86°
2026-05-06 05:04 -34.96261 143.71100 39202 ft 500 kts 86°
2026-05-06 05:04 -34.96128 143.79577 39199 ft 500 kts 86°
2026-05-06 05:05 -34.95990 143.88055 39201 ft 499 kts 86°
2026-05-06 05:05 -34.95847 143.96464 39206 ft 500 kts 86°
2026-05-06 05:06 -34.95697 144.04940 39203 ft 500 kts 86°
2026-05-06 05:06 -34.95541 144.13412 39198 ft 500 kts 86°
2026-05-06 05:07 -34.95378 144.21896 39201 ft 500 kts 86°
2026-05-06 05:07 -34.95210 144.30382 39206 ft 500 kts 86°
2026-05-06 05:08 -34.95036 144.38860 39194 ft 500 kts 86°
2026-05-06 05:08 -34.94857 144.47333 39204 ft 500 kts 85°
2026-05-06 05:09 -34.94672 144.55771 39204 ft 500 kts 85°
2026-05-06 05:09 -34.94480 144.64261 39205 ft 500 kts 85°
2026-05-06 05:10 -34.94283 144.72734 39208 ft 500 kts 85°
2026-05-06 05:10 -34.94080 144.81201 39201 ft 500 kts 85°
2026-05-06 05:11 -34.93871 144.89679 39198 ft 500 kts 85°
2026-05-06 05:11 -34.93658 144.98085 39179 ft 499 kts 85°
2026-05-06 05:12 -34.93439 145.06550 39199 ft 499 kts 85°
2026-05-06 05:12 -34.93209 145.14996 39197 ft 499 kts 85°
2026-05-06 05:13 -34.92969 145.23443 39195 ft 498 kts 85°
2026-05-06 05:13 -34.92723 145.31884 39199 ft 498 kts 85°
2026-05-06 05:14 -34.92475 145.40278 39192 ft 498 kts 85°
2026-05-06 05:14 -34.92219 145.48721 39193 ft 498 kts 85°
2026-05-06 05:15 -34.91958 145.57159 39180 ft 498 kts 85°
2026-05-06 05:15 -34.91691 145.65596 39190 ft 498 kts 84°
2026-05-06 05:16 -34.91418 145.74032 39195 ft 498 kts 84°
2026-05-06 05:16 -34.91139 145.82453 39193 ft 498 kts 84°
2026-05-06 05:17 -34.90857 145.90822 39190 ft 498 kts 84°
2026-05-06 05:17 -34.90567 145.99248 39191 ft 498 kts 84°
2026-05-06 05:18 -34.90271 146.07668 39196 ft 498 kts 84°
2026-05-06 05:18 -34.89969 146.16098 39173 ft 498 kts 84°
2026-05-06 05:19 -34.89661 146.24526 39183 ft 497 kts 84°
2026-05-06 05:19 -34.89348 146.32950 39156 ft 497 kts 84°
2026-05-06 05:20 -34.89029 146.41367 39163 ft 497 kts 84°
2026-05-06 05:20 -34.88706 146.49736 39156 ft 498 kts 84°
2026-05-06 05:21 -34.88375 146.58157 39157 ft 498 kts 84°
2026-05-06 05:21 -34.88038 146.66580 39154 ft 498 kts 84°
2026-05-06 05:22 -34.87754 146.73589 39156 ft 498 kts 84°
2026-05-06 05:22 -34.87347 146.83435 39150 ft 498 kts 84°
2026-05-06 05:23 -34.87053 146.90446 39161 ft 498 kts 84°
2026-05-06 05:23 -34.86512 147.03078 39157 ft 498 kts 84°
2026-05-06 05:24 -34.86144 147.11502 39149 ft 498 kts 84°
2026-05-06 05:24 -34.85770 147.19929 39154 ft 498 kts 84°
2026-05-06 05:25 -34.85391 147.28352 39150 ft 498 kts 83°
2026-05-06 05:25 -34.85005 147.36777 39155 ft 498 kts 83°
2026-05-06 05:26 -34.84614 147.45197 39143 ft 498 kts 83°
2026-05-06 05:26 -34.84220 147.53561 39151 ft 498 kts 83°
2026-05-06 05:27 -34.83815 147.62036 39153 ft 498 kts 83°
2026-05-06 05:27 -34.83409 147.70406 39149 ft 499 kts 83°
2026-05-06 05:28 -34.82994 147.78830 39149 ft 499 kts 83°
2026-05-06 05:28 -34.82573 147.87272 39146 ft 499 kts 83°
2026-05-06 05:29 -34.82146 147.95702 39134 ft 500 kts 83°
2026-05-06 05:29 -34.81713 148.04150 39122 ft 500 kts 83°
2026-05-06 05:30 -34.81274 148.12596 39138 ft 500 kts 83°
2026-05-06 05:30 -34.80829 148.21033 39133 ft 500 kts 83°
2026-05-06 05:31 -34.80379 148.29474 39132 ft 500 kts 83°
2026-05-06 05:31 -34.79922 148.37923 39123 ft 500 kts 83°
2026-05-06 05:32 -34.79458 148.46381 39125 ft 501 kts 83°
2026-05-06 05:32 -34.78993 148.54770 39123 ft 501 kts 83°
2026-05-06 05:33 -34.78518 148.63228 39118 ft 501 kts 83°
2026-05-06 05:33 -34.78037 148.71683 39105 ft 501 kts 83°
2026-05-06 05:34 -34.77550 148.80154 39122 ft 501 kts 83°
2026-05-06 05:34 -34.77060 148.88551 39111 ft 501 kts 83°
2026-05-06 05:35 -34.76562 148.97010 39102 ft 502 kts 83°
2026-05-06 05:35 -34.76056 149.05481 39098 ft 502 kts 82°
2026-05-06 05:36 -34.75545 149.13948 39099 ft 502 kts 82°
2026-05-06 05:36 -34.75029 149.22421 39106 ft 503 kts 82°
2026-05-06 05:37 -34.74505 149.30913 39082 ft 503 kts 82°
2026-05-06 05:37 -34.73465 149.39270 39092 ft 496 kts 69°
2026-05-06 05:38 -34.70742 149.46837 39102 ft 486 kts 56°
2026-05-06 05:38 -34.67492 149.54058 39086 ft 486 kts 56°
2026-05-06 05:39 -34.65900 149.57617 39061 ft 472 kts 56°
2026-05-06 05:39 -34.64371 149.61081 39063 ft 457 kts 56°
2026-05-06 05:39 -34.62897 149.64442 39005 ft 445 kts 56°
2026-05-06 05:39 -34.61455 149.67732 38708 ft 439 kts 56°
2026-05-06 05:40 -34.60019 149.71002 38129 ft 440 kts 56°
2026-05-06 05:40 -34.58562 149.74305 37378 ft 452 kts 56°
2026-05-06 05:40 -34.57058 149.77706 36725 ft 474 kts 57°
2026-05-06 05:40 -34.55475 149.81293 36039 ft 485 kts 57°
2026-05-06 05:41 -34.53894 149.84901 35348 ft 485 kts 58°
2026-05-06 05:41 -34.52311 149.88511 34679 ft 483 kts 58°
2026-05-06 05:41 -34.50731 149.92097 34030 ft 482 kts 58°
2026-05-06 05:41 -34.49152 149.95674 33264 ft 480 kts 58°
2026-05-06 05:42 -34.47580 149.99227 32537 ft 478 kts 58°
2026-05-06 05:42 -34.46011 150.02770 31826 ft 476 kts 58°
2026-05-06 05:42 -34.44441 150.06311 31107 ft 479 kts 59°
2026-05-06 05:42 -34.42855 150.09882 30365 ft 482 kts 59°
2026-05-06 05:43 -34.41255 150.13483 29586 ft 485 kts 59°
2026-05-06 05:43 -34.39650 150.17097 28751 ft 487 kts 59°
2026-05-06 05:43 -34.38067 150.20659 27966 ft 488 kts 59°
2026-05-06 05:43 -34.36451 150.24291 27179 ft 489 kts 59°
2026-05-06 05:44 -34.34835 150.27919 26356 ft 492 kts 59°
2026-05-06 05:44 -34.33201 150.31583 25486 ft 495 kts 59°
2026-05-06 05:44 -34.31564 150.35249 24657 ft 496 kts 59°
2026-05-06 05:44 -34.29931 150.38906 23840 ft 491 kts 59°
2026-05-06 05:45 -34.28313 150.42525 22936 ft 486 kts 59°
2026-05-06 05:45 -34.26714 150.46096 22007 ft 479 kts 59°
2026-05-06 05:45 -34.25138 150.49616 21112 ft 471 kts 59°
2026-05-06 05:45 -34.23607 150.53034 20254 ft 464 kts 59°
2026-05-06 05:46 -34.22081 150.56438 19410 ft 457 kts 59°
2026-05-06 05:46 -34.20577 150.59791 18591 ft 451 kts 59°
2026-05-06 05:46 -34.19094 150.63092 17691 ft 445 kts 59°
2026-05-06 05:46 -34.17625 150.66360 16789 ft 439 kts 59°
2026-05-06 05:47 -34.16177 150.69577 15909 ft 434 kts 59°
2026-05-06 05:47 -34.14745 150.72758 15042 ft 428 kts 59°
2026-05-06 05:47 -34.13324 150.75911 14094 ft 426 kts 59°
2026-05-06 05:47 -34.11913 150.79043 13080 ft 423 kts 59°
2026-05-06 05:48 -34.10513 150.82143 12342 ft 414 kts 59°
2026-05-06 05:48 -34.09159 150.85144 11739 ft 402 kts 59°
2026-05-06 05:48 -34.07829 150.88100 10706 ft 403 kts 60°
2026-05-06 05:48 -34.06489 150.91076 9850 ft 400 kts 60°
2026-05-06 05:49 -34.05183 150.93977 9258 ft 387 kts 60°
2026-05-06 05:49 -34.03910 150.96800 8487 ft 381 kts 60°
2026-05-06 05:49 -34.02648 150.99595 7650 ft 379 kts 60°
2026-05-06 05:49 -34.01361 151.02345 6866 ft 374 kts 54°
2026-05-06 05:50 -33.99561 151.04533 6446 ft 362 kts 32°
2026-05-06 05:50 -33.97348 151.05682 6295 ft 337 kts 10°
2026-05-06 05:50 -33.95095 151.05734 6150 ft 315 kts 349°
2026-05-06 05:50 -33.93032 151.05143 6086 ft 295 kts 344°
2026-05-06 05:51 -33.91115 151.04492 6067 ft 277 kts 343°
2026-05-06 05:51 -33.89332 151.03898 6032 ft 262 kts 343°
2026-05-06 05:51 -33.87581 151.03328 5913 ft 254 kts 343°
2026-05-06 05:51 -33.85885 151.02770 5561 ft 253 kts 343°
2026-05-06 05:52 -33.84210 151.02211 5196 ft 253 kts 343°
2026-05-06 05:52 -33.82517 151.01631 4870 ft 251 kts 343°
2026-05-06 05:52 -33.80852 151.01049 4675 ft 247 kts 342°
2026-05-06 05:52 -33.79212 151.00472 4602 ft 246 kts 342°
2026-05-06 05:53 -33.77562 150.99890 4563 ft 248 kts 342°
2026-05-06 05:53 -33.75869 150.99292 4108 ft 265 kts 343°
2026-05-06 05:53 -33.74058 150.98639 3463 ft 276 kts 343°
2026-05-06 05:53 -33.72242 150.97971 3237 ft 267 kts 343°
2026-05-06 05:54 -33.70475 150.97469 3084 ft 256 kts 359°
2026-05-06 05:54 -33.68809 150.97935 3065 ft 241 kts 26°
2026-05-06 05:54 -33.67563 150.99180 3054 ft 230 kts 56°
2026-05-06 05:54 -33.67094 151.00926 3060 ft 217 kts 90°
2026-05-06 05:55 -33.67505 151.02591 3052 ft 206 kts 126°
2026-05-06 05:55 -33.68622 151.03610 3049 ft 204 kts 163°
2026-05-06 05:55 -33.70014 151.03725 3099 ft 203 kts 179°
2026-05-06 05:55 -33.71302 151.04310 3080 ft 201 kts 133°
2026-05-06 05:56 -33.72295 151.05524 3065 ft 206 kts 137°
2026-05-06 05:56 -33.73388 151.06648 3044 ft 207 kts 141°
2026-05-06 05:56 -33.74520 151.07683 3010 ft 207 kts 144°
2026-05-06 05:56 -33.75694 151.08667 2942 ft 206 kts 146°
2026-05-06 05:57 -33.76940 151.09642 2460 ft 222 kts 148°
2026-05-06 05:57 -33.78272 151.10625 2158 ft 224 kts 148°
2026-05-06 05:57 -33.79575 151.11547 2138 ft 211 kts 149°
2026-05-06 05:57 -33.80807 151.12400 2124 ft 199 kts 149°
2026-05-06 05:58 -33.82024 151.13234 2098 ft 202 kts 150°
2026-05-06 05:58 -33.83242 151.14066 2101 ft 200 kts 150°
2026-05-06 05:58 -33.84446 151.14883 2092 ft 194 kts 152°
2026-05-06 05:58 -33.85702 151.15315 2164 ft 188 kts 172°
2026-05-06 05:59 -33.86987 151.15607 2150 ft 186 kts 167°
2026-05-06 05:59 -33.88235 151.15934 2146 ft 181 kts 167°
2026-05-06 05:59 -33.89480 151.16262 1906 ft 191 kts 165°
2026-05-06 05:59 -33.90836 151.16644 1199 ft 205 kts 167°
2026-05-06 06:00 -33.92256 151.16958 463 ft 212 kts 166°
2026-05-06 06:00 -33.93659 151.17350 48 ft 200 kts 167°
2026-05-06 06:00 -33.94691 151.17614 28 ft 71 kts 169°
2026-05-06 06:00 -33.94972 151.17650 27 ft 36 kts 184°
2026-05-06 06:01 -33.95111 151.17621 27 ft 0 kts 195°
2026-05-06 06:01 -33.95111 151.17622 27 ft 0 kts 195°
2026-05-06 06:02 -33.95111 151.17621 27 ft 0 kts 195°
2026-05-06 06:02 -33.95113 151.17621 27 ft 2 kts 195°
2026-05-06 06:02 -33.95144 151.17591 28 ft 8 kts 240°
2026-05-06 06:02 -33.95071 151.17509 29 ft 21 kts 347°
2026-05-06 06:03 -33.94922 151.17469 28 ft 22 kts 349°
2026-05-06 06:03 -33.94776 151.17432 29 ft 21 kts 348°
2026-05-06 06:03 -33.94634 151.17401 29 ft 21 kts 357°
2026-05-06 06:03 -33.94494 151.17362 29 ft 21 kts 348°
2026-05-06 06:04 -33.94402 151.17340 29 ft 5 kts 347°
2026-05-06 06:04 -33.94368 151.17329 29 ft 3 kts 342°
2026-05-06 06:04 -33.94342 151.17319 29 ft 6 kts 342°
2026-05-06 06:04 -33.94266 151.17298 29 ft 11 kts 347°
2026-05-06 06:05 -33.94235 151.17290 28 ft 6 kts 348°
2026-05-06 06:05 -33.94149 151.17272 27 ft 21 kts 348°
2026-05-06 06:05 -33.94039 151.17241 28 ft 14 kts 348°
2026-05-06 06:05 -33.94009 151.17236 28 ft 6 kts 356°
2026-05-06 06:06 -33.93944 151.17335 29 ft 20 kts 77°
2026-05-06 06:06 -33.93917 151.17458 26 ft 14 kts 73°
2026-05-06 06:06 -33.93891 151.17560 28 ft 10 kts 73°
2026-05-06 06:06 -33.93873 151.17641 28 ft 10 kts 77°
2026-05-06 06:07 -33.93851 151.17719 28 ft 10 kts 60°
2026-05-06 06:07 -33.93795 151.17765 29 ft 11 kts 16°
2026-05-06 06:07 -33.93721 151.17789 29 ft 11 kts 15°
2026-05-06 06:07 -33.93670 151.17807 29 ft 1 kts 34°
2026-05-06 06:08 -33.93669 151.17808 29 ft 1 kts 35°
2026-05-06 06:08 -33.93658 151.17842 29 ft 6 kts 87°
2026-05-06 06:09 -33.93658 151.17848 29 ft 0 kts 91°
2026-05-06 06:09 -33.93659 151.17876 29 ft 1 kts 90°
2026-05-06 06:09 -33.93659 151.17882 29 ft 0 kts 90°